Tillbaka till svenska Fidonet
English   Information   Debug  
FILM   0/18
FNEWS_PUBLISH   4983
FN_SYSOP   42232
FN_SYSOP_OLD1   71952
FTP_FIDO   0/2
FTSC_PUBLIC   0/13976
FUNNY   0/4886
GENEALOGY.EUR   0/71
GET_INFO   105
GOLDED   0/408
HAM   3637/16712
HOLYSMOKE   0/6791
HOT_SITES   0/1
HTMLEDIT   0/71
HUB203   466
HUB_100   264
HUB_400   39
HUMOR   0/29
IC   0/2851
INTERNET   0/424
INTERUSER   0/3
IP_CONNECT   719
JAMNNTPD   0/233
JAMTLAND   0/47
KATTY_KORNER   0/41
LAN   0/16
LINUX-USER   0/19
LINUXHELP   0/1155
LINUX   0/22382
LINUX_BBS   0/957
mail   18.68
mail_fore_ok   249
MENSA   0/341
MODERATOR   0/102
MONTE   0/992
MOSCOW_OKLAHOMA   0/1245
MUFFIN   0/783
MUSIC   0/321
N203_STAT   938
N203_SYSCHAT   313
NET203   321
NET204   69
NET_DEV   0/10
NORD.ADMIN   0/101
NORD.CHAT   0/2572
NORD.FIDONET   189
NORD.HARDWARE   0/28
NORD.KULTUR   0/114
NORD.PROG   0/32
NORD.SOFTWARE   0/88
NORD.TEKNIK   0/58
NORD   0/453
OCCULT_CHAT   0/93
OS2BBS   0/787
OS2DOSBBS   0/580
OS2HW   0/42
OS2INET   0/37
OS2LAN   0/134
OS2PROG   0/36
OS2REXX   0/113
OS2USER-L   207
OS2   0/4831
OSDEBATE   0/18996
PASCAL   0/490
PERL   0/457
PHP   0/45
POINTS   0/405
POLITICS   0/29554
POL_INC   0/14731
PSION   103
R20_ADMIN   1133
R20_AMATORRADIO   0/2
R20_BEST_OF_FIDONET   16
R20_CHAT   0/897
R20_DEPP   0/3
R20_DEV   400
R20_ECHO2   1889
R20_ECHOPRES   0/35
R20_ESTAT   0/719
R20_FIDONETPROG...
...RAM.MYPOINT
  0/2
R20_FIDONETPROGRAM   0/22
R20_FIDONET   0/248
R20_FILEFIND   0/24
R20_FILEFOUND   0/22
R20_HIFI   0/3
R20_INFO2   3781
R20_INTERNET   0/12940
R20_INTRESSE   0/60
R20_INTR_KOM   0/99
R20_KANDIDAT.CHAT   42
R20_KANDIDAT   28
R20_KOM_DEV   112
R20_KONTROLL   0/13360
R20_KORSET   0/18
R20_LOKALTRAFIK   0/24
R20_MODERATOR   0/1852
R20_NC   76
R20_NET200   245
R20_NETWORK.OTH...
...ERNETS
  0/13
R20_OPERATIVSYS...
...TEM.LINUX
  0/44
R20_PROGRAMVAROR   0/1
R20_REC2NEC   534
R20_SFOSM   0/341
R20_SF   0/108
R20_SPRAK.ENGLISH   0/1
R20_SQUISH   107
R20_TEST   2
R20_WORST_OF_FIDONET   20
RAR   0/9
RA_MULTI   106
RA_UTIL   0/162
REGCON.EUR   0/2069
REGCON   0/13
SCIENCE   0/1206
SF   0/239
SHAREWARE_SUPPORT   0/5146
SHAREWRE   0/14
SIMPSONS   0/169
STATS_OLD1   0/2539.065
STATS_OLD2   0/2530
STATS_OLD3   0/2395.095
STATS_OLD4   0/1692.25
SURVIVOR   0/495
SYSOPS_CORNER   0/3
SYSOP   0/84
TAGLINES   0/112
TEAMOS2   0/4530
TECH   0/2617
TEST.444   0/105
TRAPDOOR   0/19
TREK   0/755
TUB   0/290
UFO   0/40
UNIX   0/1316
USA_EURLINK   0/102
USR_MODEMS   0/1
VATICAN   0/2740
VIETNAM_VETS   0/14
VIRUS   0/378
VIRUS_INFO   0/201
VISUAL_BASIC   0/473
WHITEHOUSE   0/5187
WIN2000   0/101
WIN32   0/30
WIN95   0/4291
WIN95_OLD1   0/70272
WINDOWS   0/1517
WWB_SYSOP   0/419
WWB_TECH   0/810
ZCC-PUBLIC   0/1
ZEC   4

 
4DOS   0/134
ABORTION   0/7
ALASKA_CHAT   0/506
ALLFIX_FILE   0/1313
ALLFIX_FILE_OLD1   0/7997
ALT_DOS   0/152
AMATEUR_RADIO   0/1039
AMIGASALE   0/14
AMIGA   0/331
AMIGA_INT   0/1
AMIGA_PROG   0/20
AMIGA_SYSOP   0/26
ANIME   0/15
ARGUS   0/924
ASCII_ART   0/340
ASIAN_LINK   0/651
ASTRONOMY   0/417
AUDIO   0/92
AUTOMOBILE_RACING   0/105
BABYLON5   0/17862
BAG   135
BATPOWER   0/361
BBBS.ENGLISH   0/382
BBSLAW   0/109
BBS_ADS   0/5290
BBS_INTERNET   0/507
BIBLE   0/3563
BINKD   0/1119
BINKLEY   0/215
BLUEWAVE   0/2173
CABLE_MODEMS   0/25
CBM   0/46
CDRECORD   0/66
CDROM   0/20
CLASSIC_COMPUTER   0/378
COMICS   0/15
CONSPRCY   0/899
COOKING   42003
COOKING_OLD1   0/24719
COOKING_OLD2   0/40862
COOKING_OLD3   0/37489
COOKING_OLD4   0/35496
COOKING_OLD5   9370
C_ECHO   0/189
C_PLUSPLUS   0/31
DIRTY_DOZEN   0/201
DOORGAMES   0/2333
DOS_INTERNET   0/196
duplikat   6102
ECHOLIST   0/18295
EC_SUPPORT   0/318
ELECTRONICS   0/359
ELEKTRONIK.GER   1534
ENET.LINGUISTIC   0/13
ENET.POLITICS   0/4
ENET.SOFT   0/11701
ENET.SYSOP   34332
ENET.TALKS   0/32
ENGLISH_TUTOR   0/2000
EVOLUTION   0/1335
FDECHO   0/217
FDN_ANNOUNCE   0/7068
FIDONEWS   25122
FIDONEWS_OLD1   0/49742
FIDONEWS_OLD2   0/35949
FIDONEWS_OLD3   0/30874
FIDONEWS_OLD4   0/37224
FIDO_SYSOP   12973
FIDO_UTIL   0/180
FILEFIND   0/209
FILEGATE   0/212
Möte HAM, 16712 texter
 lista första sista föregående nästa
Text 2441, 802 rader
Skriven 2008-08-14 23:00:20 av Amsat List (1:323/120.0)
Ärende: [keps]  orb08227.amsa
=============================
[keps]  orb08227.amsa

Return-Path: <keps-bounces@amsat.org>
X-Rcpt: craig.healy@chowda.com
X-UIDL: 1218769012.8693

SB KEPS @ AMSAT  $ORB08227.O
Orbital Elements  08227.OSCAR

HR AMSAT ORBITAL ELEMENTS FOR OSCAR SATELLITES
FROM WA5QGD FORT WORTH,TX August 14, 2008
Send Subscribe/unsubscribe to KEPS at 
http://www.amsat.org/mailman/listinfo/keps
BID: ORB08227.O
TO ALL RADIO AMATEURS BT

Satellite: AO-07
Catalog number: 07530
Epoch time:      08226.67446543
Element set:    0252
Inclination:      101.4629 deg
RA of node:       256.2418 deg
Eccentricity:    0.0012084
Arg of perigee:   148.6518 deg
Mean anomaly:     211.5271 deg
Mean motion:   12.53573855 rev/day
Decay rate:       -2.7e-07 rev/day^2
Epoch rev:           54418
Checksum:              293

Satellite: AO-10
Catalog number: 14129
Epoch time:      08225.05533752
Element set:    0543
Inclination:      026.0194 deg
RA of node:       201.0008 deg
Eccentricity:    0.5970800
Arg of perigee:   147.8941 deg
Mean anomaly:     269.2176 deg
Mean motion:   02.05869232 rev/day
Decay rate:      -1.23e-06 rev/day^2
Epoch rev:           18925
Checksum:              285

Satellite: UO-11
Catalog number: 14781
Epoch time:      08226.93675454
Element set:    0745
Inclination:      098.1507 deg
RA of node:       261.8221 deg
Eccentricity:    0.0008059
Arg of perigee:   245.4952 deg
Mean anomaly:     114.5424 deg
Mean motion:   14.79657767 rev/day
Decay rate:        9.3e-07 rev/day^2
Epoch rev:           31239
Checksum:              326

Satellite: RS-15
Catalog number: 23439
Epoch time:      08226.92945839
Element set:    0153
Inclination:      064.8156 deg
RA of node:       041.6724 deg
Eccentricity:    0.0147044
Arg of perigee:   111.7783 deg
Mean anomaly:     249.8860 deg
Mean motion:   11.27552823 rev/day
Decay rate:       -3.9e-07 rev/day^2
Epoch rev:           56147
Checksum:              325

Satellite: FO-29
Catalog number: 24278
Epoch time:      08226.80558377
Element set:    0859
Inclination:      098.5820 deg
RA of node:       135.5463 deg
Eccentricity:    0.0351407
Arg of perigee:   066.4539 deg
Mean anomaly:     297.3101 deg
Mean motion:   13.52939341 rev/day
Decay rate:       -2.7e-07 rev/day^2
Epoch rev:           59218
Checksum:              338

Satellite: SO-33
Catalog number: 25509
Epoch time:      08226.71677214
Element set:     262
Inclination:      031.4330 deg
RA of node:       351.0648 deg
Eccentricity:    0.0354933
Arg of perigee:   170.3189 deg
Mean anomaly:     190.4800 deg
Mean motion:   14.28221579 rev/day
Decay rate:       3.05e-06 rev/day^2
Epoch rev:           51184
Checksum:              287

Satellite: AO-40
Catalog number: 26609
Epoch time:      08226.12994095
Element set:     102
Inclination:      007.6761 deg
RA of node:       066.8940 deg
Eccentricity:    0.7928342
Arg of perigee:   111.5291 deg
Mean anomaly:     343.0909 deg
Mean motion:   01.25585828 rev/day
Decay rate:      -3.27e-06 rev/day^2
Epoch rev:            3575
Checksum:              317

Satellite: VO-52
Catalog number: 28650
Epoch time:      08226.68124158
Element set:    0005
Inclination:      097.7857 deg
RA of node:       291.7019 deg
Eccentricity:    0.0026197
Arg of perigee:   315.0740 deg
Mean anomaly:     044.8375 deg
Mean motion:   14.81488789 rev/day
Decay rate:        3.9e-07 rev/day^2
Epoch rev:           17711
Checksum:              332

Satellite: PO-63
Catalog number: 29712
Epoch time:      08227.83251513
Element set:     707
Inclination:      097.8716 deg
RA of node:       284.9082 deg
Eccentricity:    0.0013940
Arg of perigee:   186.4096 deg
Mean anomaly:     173.6930 deg
Mean motion:   14.80237341 rev/day
Decay rate:       4.03e-06 rev/day^2
Epoch rev:            8614
Checksum:              311

/EX
SB KEPS @ AMSAT  $ORB08227.D
Orbital Elements  08227.MICROS

HR AMSAT ORBITAL ELEMENTS FOR THE MICROSATS
FROM WA5QGD FORT WORTH,TX August 14, 2008
Send Subscribe/unsubscribe to KEPS at 
http://www.amsat.org/mailman/listinfo/keps
BID: ORB08227.D
TO ALL RADIO AMATEURS BT

Satellite: AO-16
Catalog number: 20439
Epoch time:      08226.93362359
Element set:    0395
Inclination:      098.2347 deg
RA of node:       204.0577 deg
Eccentricity:    0.0011407
Arg of perigee:   010.1189 deg
Mean anomaly:     350.0225 deg
Mean motion:   14.31800192 rev/day
Decay rate:        4.0e-08 rev/day^2
Epoch rev:           96918
Checksum:              286

Satellite: LO-19
Catalog number: 20442
Epoch time:      08226.97135997
Element set:    0320
Inclination:      098.2054 deg
RA of node:       212.4532 deg
Eccentricity:    0.0012249
Arg of perigee:   007.3111 deg
Mean anomaly:     352.8246 deg
Mean motion:   14.32038148 rev/day
Decay rate:       -1.6e-07 rev/day^2
Epoch rev:           96934
Checksum:              287

Satellite: AO-27
Catalog number: 22825
Epoch time:      08227.79682192
Element set:      40
Inclination:      098.3880 deg
RA of node:       185.6342 deg
Eccentricity:    0.0009360
Arg of perigee:   088.2912 deg
Mean anomaly:     271.9343 deg
Mean motion:   14.29244109 rev/day
Decay rate:      -1.27e-06 rev/day^2
Epoch rev:           77614
Checksum:              319

Satellite: IO-26
Catalog number: 22826
Epoch time:      08226.86073968
Element set:     746
Inclination:      098.3812 deg
RA of node:       185.6156 deg
Eccentricity:    0.0009932
Arg of perigee:   086.5873 deg
Mean anomaly:     273.6453 deg
Mean motion:   14.29493807 rev/day
Decay rate:       -1.1e-07 rev/day^2
Epoch rev:           77610
Checksum:              345

